Weather History for KLHQ - March, 2013

Change the Weather History Date:

Wednesday, March 20, 2013

  Actual Average Record
Temperature  
Mean Temperature 32 °F -  
Max Temperature 39 °F 48 °F 84 °F (2012)
Min Temperature 24 °F 29 °F 10 °F (1956)
Degree Days  
Heating Degree Days 34    
Moisture  
Dew Point 15 °F    
Average Humidity 51    
Maximum Humidity 66    
Minimum Humidity 38    
Precipitation  
Precipitation 0.00 in - - ()
Sea Level Pressure  
Sea Level Pressure 30.00 in    
Wind  
Wind Speed 11 mph (West)    
Max Wind Speed 20 mph    
Max Gust Speed 31 mph    
Visibility 10 miles    
Events      
Averages and records for this station are not official NWS values.
T = Trace of Precipitation, MM = Missing Value Source: NWS Daily Summary

Daily Weather History Graph

Daily Weather History Graph

Search for Another Location

Airport or City:

Trip Planner

Search our weather history database for the weather conditions in past years. The results will help you decide how hot, cold, wet, or windy it might be!

Date:

Astronomy

Mar. 20, 2013 Rise Set
Actual Time 7:33 AM EDT 7:42 PM EDT
Civil Twilight 7:06 AM EDT 8:09 PM EDT
Nautical Twilight 6:35 AM EDT 8:41 PM EDT
Astronomical Twilight 6:03 AM EDT 9:13 PM EDT
Moon 1:17 PM EDT (3/20) 3:11 AM EDT (3/20)
Length of Visible Light 13h 03m
Length of Day
12h 09m
First Quarter, 59% of the Moon is Illuminated
Mar 20
First Quarter
Mar 27
Full
Apr 3
Last Quarter
Apr 10
New
Apr 18
First Quarter

Hourly Weather History & Observations

Time (EDT) Temp. Windchill Dew Point Humidity Pressure Visibility Wind Dir Wind Speed Gust Speed Precip Events Conditions
12:53 AM 33.1 °F 25.5 °F 16.0 °F 50% 30.06 in 10.0 mi West 9.2 mph - N/A   Clear
1:53 AM 32.0 °F 24.2 °F 16.0 °F 52% 30.06 in 10.0 mi West 9.2 mph - N/A   Clear
2:53 AM 30.9 °F 23.5 °F 17.1 °F 57% 30.06 in 10.0 mi West 8.1 mph - N/A   Clear
3:53 AM 30.9 °F 22.2 °F 17.1 °F 57% 30.04 in 10.0 mi West 10.4 mph - N/A   Clear
4:53 AM 30.0 °F 21.7 °F 16.0 °F 56% 30.04 in 10.0 mi West 9.2 mph - N/A   Clear
5:53 AM 28.9 °F 21.1 °F 16.0 °F 58% 30.03 in 10.0 mi West 8.1 mph - N/A   Clear
6:53 AM 28.0 °F 21.7 °F 17.1 °F 63% 30.02 in 10.0 mi WSW 5.8 mph - N/A   Mostly Cloudy
7:53 AM 28.0 °F 21.7 °F 18.0 °F 66% 30.02 in 10.0 mi WSW 5.8 mph - N/A   Scattered Clouds
8:53 AM 30.9 °F 24.3 °F 17.1 °F 57% 30.02 in 10.0 mi WSW 6.9 mph - N/A   Overcast
9:53 AM 33.1 °F 24.9 °F 18.0 °F 54% 30.03 in 10.0 mi West 10.4 mph 20.7 mph N/A   Overcast
10:53 AM 35.1 °F 26.4 °F 18.0 °F 50% 30.01 in 10.0 mi West 12.7 mph 18.4 mph N/A   Overcast
11:53 AM 35.1 °F 24.5 °F 17.1 °F 48% 29.99 in 10.0 mi West 18.4 mph 23.0 mph N/A   Overcast
12:53 PM 36.0 °F 26.0 °F 15.1 °F 43% 29.97 in 10.0 mi West 17.3 mph 26.5 mph N/A   Overcast
1:53 PM 39.9 °F 30.5 °F 16.0 °F 38% 29.95 in 10.0 mi West 19.6 mph 28.8 mph N/A   Unknown
2:53 PM 37.9 °F 29.2 °F 15.1 °F 39% 29.94 in 10.0 mi West 15.0 mph 31.1 mph N/A   Mostly Cloudy
3:53 PM 37.9 °F 29.6 °F 16.0 °F 41% 29.93 in 10.0 mi West 13.8 mph 27.6 mph N/A   Scattered Clouds
4:53 PM 34.0 °F 24.2 °F 12.9 °F 42% 29.94 in 10.0 mi WNW 15.0 mph 21.9 mph N/A   Overcast
5:53 PM 33.1 °F 22.6 °F 12.0 °F 42% 29.94 in 10.0 mi WNW 16.1 mph 24.2 mph N/A   Mostly Cloudy
6:53 PM 32.0 °F 21.6 °F 12.0 °F 44% 29.94 in 10.0 mi WNW 15.0 mph 20.7 mph N/A   Mostly Cloudy
7:53 PM 28.9 °F 17.7 °F 15.1 °F 56% 29.97 in 10.0 mi NW 15.0 mph 20.7 mph N/A   Overcast
8:53 PM 28.0 °F 17.0 °F 12.9 °F 53% 29.99 in 10.0 mi NW 13.8 mph 20.7 mph N/A   Mostly Cloudy
9:53 PM 25.0 °F 14.2 °F 10.9 °F 55% 29.99 in 10.0 mi NW 11.5 mph 20.7 mph N/A   Clear
10:53 PM 24.1 °F 13.7 °F 9.0 °F 53% 30.00 in 10.0 mi NW 10.4 mph 18.4 mph N/A   Partly Cloudy
11:53 PM 24.1 °F 16.0 °F 9.0 °F 53% 29.99 in 10.0 mi WNW 6.9 mph 16.1 mph N/A   Clear